| time (UTC) | temp F | wind direction | speed MPH | gust MPH | rain 1hr in | rain 24hr in | rain mn in | humidity % | barometer mb |
| 20260905082804 | 50 | 263 | 0.0 | 0.0 | 0.00 | 0.02 | 0.00 | 86 | 1017.2 |
| 20260905081949 | 50 | 263 | 0.0 | 0.0 | 0.00 | 0.02 | 0.00 | 86 | 1017.1 |
| 20260905081445 | 50 | 263 | 0.0 | 0.0 | 0.00 | 0.03 | 0.00 | 86 | 1017.0 |
| 20260905080941 | 50 | 263 | 0.0 | 0.0 | 0.00 | 0.03 | 0.00 | 85 | 1017.0 |
| 20260905080755 | 50 | 263 | 0.0 | 0.0 | 0.00 | 0.04 | 0.00 | 85 | 1016.9 |
| 20260905075941 | 51 | 263 | 0.0 | 0.0 | 0.00 | 0.04 | 0.00 | 85 | 1016.9 |
| 20260905075441 | 51 | 263 | 0.0 | 0.0 | 0.00 | 0.05 | 0.00 | 85 | 1017.0 |
| 20260905074940 | 51 | 263 | 0.0 | 0.0 | 0.00 | 0.06 | 0.00 | 85 | 1016.9 |
| 20260905074749 | 51 | 263 | 0.0 | 0.0 | 0.00 | 0.07 | 0.00 | 85 | 1016.8 |
| 20260905073941 | 51 | 263 | 0.0 | 0.0 | 0.00 | 0.07 | 0.00 | 85 | 1016.9 |
| 20260905073926 | 51 | 263 | 0.0 | 0.0 | 0.00 | 0.08 | 0.00 | 84 | 1016.9 |
| 20260905073921 | 51 | 263 | 0.0 | 0.0 | 0.00 | 0.07 | 0.00 | 85 | 1017.0 |
| 20260905072811 | 52 | 263 | 0.0 | 0.0 | 0.00 | 0.08 | 0.00 | 84 | 1016.8 |
| 20260905072325 | 52 | 263 | 0.0 | 0.0 | 0.00 | 0.08 | 0.00 | 83 | 1016.7 |
| 20260905071439 | 52 | 263 | 0.0 | 0.0 | 0.00 | 0.09 | 0.00 | 83 | 1016.7 |
| 20260905070933 | 52 | 263 | 0.0 | 0.0 | 0.00 | 0.09 | 0.00 | 83 | 1016.7 |
| 20260905070440 | 52 | 263 | 0.0 | 0.0 | 0.00 | 0.10 | 0.00 | 83 | 1016.7 |
| 20260905065938 | 52 | 263 | 0.0 | 0.0 | 0.00 | 0.10 | 0.10 | 82 | 1016.7 |
| 20260905065755 | 53 | 263 | 0.0 | 0.0 | 0.00 | 0.10 | 0.10 | 82 | 1016.7 |
| 20260905064936 | 53 | 263 | 0.0 | 0.0 | 0.00 | 0.10 | 0.10 | 82 | 1016.8 |
| 20260905064604 | 53 | 263 | 0.0 | 0.0 | 0.00 | 0.10 | 0.10 | 82 | 1016.8 |
| 20260905064529 | 53 | 263 | 0.0 | 0.0 | 0.00 | 0.10 | 0.10 | 82 | 1016.8 |
| 20260905063433 | 53 | 263 | 0.0 | 0.0 | 0.00 | 0.10 | 0.10 | 82 | 1016.8 |
| 20260905062932 | 53 | 263 | 0.0 | 0.0 | 0.00 | 0.10 | 0.10 | 82 | 1016.8 |
| 20260905062748 | 53 | 263 | 0.0 | 0.0 | 0.00 | 0.10 | 0.10 | 82 | 1016.9 |
| 20260905061932 | 54 | 263 | 0.0 | 0.0 | 0.00 | 0.10 | 0.10 | 82 | 1016.9 |
| 20260905061747 | 54 | 263 | 0.0 | 0.0 | 0.00 | 0.10 | 0.10 | 82 | 1016.9 |
| 20260905061247 | 54 | 263 | 0.0 | 0.0 | 0.00 | 0.10 | 0.10 | 82 | 1016.9 |
| 20260905060751 | 54 | 263 | 0.0 | 0.0 | 0.00 | 0.10 | 0.10 | 81 | 1016.9 |
| 20260905055932 | 54 | 263 | 0.0 | 0.0 | 0.00 | 0.10 | 0.10 | 81 | 1017.0 |
| 20260905055431 | 54 | 263 | 0.0 | 0.0 | 0.00 | 0.10 | 0.10 | 81 | 1016.8 |
| 20260905054932 | 55 | 263 | 0.0 | 0.0 | 0.00 | 0.10 | 0.10 | 81 | 1016.8 |
| 20260905054430 | 55 | 263 | 0.0 | 0.0 | 0.00 | 0.10 | 0.10 | 80 | 1016.8 |
| 20260905053931 | 55 | 263 | 0.0 | 0.0 | 0.00 | 0.10 | 0.10 | 80 | 1016.7 |
| 20260905053430 | 55 | 263 | 0.0 | 0.0 | 0.00 | 0.10 | 0.10 | 80 | 1016.7 |
| 20260905052931 | 55 | 263 | 0.0 | 0.0 | 0.00 | 0.10 | 0.10 | 79 | 1016.7 |
| 20260905052744 | 55 | 263 | 0.0 | 0.0 | 0.00 | 0.10 | 0.10 | 79 | 1016.6 |
| 20260905051930 | 55 | 263 | 0.0 | 0.0 | 0.00 | 0.10 | 0.10 | 79 | 1016.6 |
| 20260905051430 | 55 | 263 | 0.0 | 0.0 | 0.00 | 0.10 | 0.10 | 78 | 1016.6 |
| 20260905050931 | 55 | 263 | 0.0 | 0.0 | 0.00 | 0.10 | 0.10 | 77 | 1016.6 |
| 20260905050748 | 55 | 263 | 0.0 | 0.0 | 0.00 | 0.10 | 0.10 | 77 | 1016.7 |
| 20260905045931 | 55 | 263 | 0.0 | 0.0 | 0.00 | 0.10 | 0.10 | 77 | 1016.6 |
| 20260905045431 | 55 | 263 | 0.0 | 0.0 | 0.00 | 0.10 | 0.10 | 76 | 1016.6 |
| 20260905044931 | 55 | 263 | 0.0 | 0.0 | 0.00 | 0.10 | 0.10 | 76 | 1016.6 |
| 20260905044750 | 56 | 263 | 0.0 | 0.0 | 0.00 | 0.10 | 0.10 | 77 | 1016.6 |
| 20260905043930 | 56 | 263 | 0.0 | 0.0 | 0.00 | 0.10 | 0.10 | 78 | 1016.6 |
| 20260905043752 | 56 | 263 | 0.0 | 0.0 | 0.00 | 0.10 | 0.10 | 77 | 1016.6 |
| 20260905042930 | 56 | 263 | 0.0 | 0.0 | 0.00 | 0.10 | 0.10 | 76 | 1016.6 |
| 20260905042430 | 56 | 263 | 0.0 | 0.0 | 0.00 | 0.10 | 0.10 | 76 | 1016.6 |
| 20260905041932 | 56 | 263 | 0.0 | 0.0 | 0.00 | 0.10 | 0.10 | 75 | 1016.6 |
| 20260905041431 | 56 | 263 | 0.0 | 1.0 | 0.00 | 0.10 | 0.10 | 75 | 1016.6 |
| 20260905040934 | 57 | 263 | 0.0 | 1.0 | 0.00 | 0.10 | 0.10 | 74 | 1016.5 |
| 20260905040432 | 57 | 263 | 0.0 | 2.0 | 0.00 | 0.10 | 0.10 | 74 | 1016.5 |
| 20260905035931 | 57 | 263 | 0.0 | 2.0 | 0.00 | 0.10 | 0.10 | 75 | 1016.6 |
| 20260905035431 | 57 | 263 | 0.0 | 1.0 | 0.00 | 0.10 | 0.10 | 75 | 1016.4 |
| 20260905034934 | 57 | 263 | 0.0 | 0.0 | 0.00 | 0.10 | 0.10 | 74 | 1016.4 |
| 20260905034537 | 57 | 263 | 0.0 | 0.0 | 0.00 | 0.10 | 0.10 | 75 | 1016.4 |
| 20260905033432 | 57 | 263 | 0.0 | 0.0 | 0.00 | 0.10 | 0.10 | 75 | 1016.4 |
| 20260905032931 | 57 | 263 | 0.0 | 1.0 | 0.00 | 0.10 | 0.10 | 74 | 1016.5 |
| 20260905032751 | 57 | 263 | 0.0 | 2.0 | 0.00 | 0.10 | 0.10 | 74 | 1016.5 |
| 20260905032247 | 57 | 263 | 0.0 | 2.0 | 0.00 | 0.10 | 0.10 | 74 | 1016.5 |
| 20260905031432 | 57 | 263 | 0.0 | 2.0 | 0.00 | 0.10 | 0.10 | 74 | 1016.5 |
| 20260905030933 | 57 | 263 | 0.0 | 2.0 | 0.00 | 0.10 | 0.10 | 74 | 1016.4 |
| 20260905030432 | 58 | 263 | 0.0 | 2.0 | 0.00 | 0.10 | 0.10 | 72 | 1016.4 |
| 20260905025931 | 58 | 263 | 0.0 | 0.0 | 0.00 | 0.10 | 0.10 | 72 | 1016.3 |
| 20260905025431 | 58 | 263 | 0.0 | 0.0 | 0.00 | 0.10 | 0.10 | 70 | 1016.3 |
| 20260905024931 | 58 | 263 | 0.0 | 0.0 | 0.00 | 0.10 | 0.10 | 71 | 1016.2 |
| 20260905024431 | 58 | 263 | 0.0 | 0.0 | 0.00 | 0.10 | 0.10 | 71 | 1016.3 |
| 20260905023943 | 58 | 263 | 0.0 | 0.0 | 0.00 | 0.10 | 0.10 | 69 | 1016.3 |
| 20260905023431 | 59 | 263 | 0.0 | 0.0 | 0.00 | 0.10 | 0.10 | 69 | 1016.2 |
| 20260905022933 | 59 | 263 | 0.0 | 0.0 | 0.00 | 0.10 | 0.10 | 68 | 1016.1 |
| 20260905022745 | 59 | 263 | 0.0 | 0.0 | 0.00 | 0.10 | 0.10 | 67 | 1015.9 |
| 20260905021932 | 59 | 263 | 0.0 | 0.0 | 0.00 | 0.10 | 0.10 | 67 | 1015.9 |
| 20260905021749 | 60 | 263 | 0.0 | 0.0 | 0.00 | 0.10 | 0.10 | 67 | 1015.8 |
| 20260905020936 | 60 | 263 | 0.0 | 0.0 | 0.00 | 0.10 | 0.10 | 66 | 1015.9 |
| 20260905020759 | 60 | 263 | 0.0 | 0.0 | 0.00 | 0.10 | 0.10 | 65 | 1015.8 |
| 20260905015933 | 60 | 263 | 0.0 | 0.0 | 0.00 | 0.10 | 0.10 | 65 | 1015.8 |
| 20260905015434 | 60 | 263 | 0.0 | 1.0 | 0.00 | 0.10 | 0.10 | 64 | 1015.8 |
| 20260905014933 | 61 | 263 | 0.0 | 1.0 | 0.00 | 0.10 | 0.10 | 63 | 1015.8 |
| 20260905014435 | 62 | 263 | 0.0 | 1.0 | 0.00 | 0.10 | 0.10 | 61 | 1015.7 |
| 20260905013931 | 62 | 263 | 0.0 | 1.0 | 0.00 | 0.10 | 0.10 | 60 | 1015.6 |
| 20260905013430 | 62 | 263 | 0.0 | 1.0 | 0.00 | 0.10 | 0.10 | 59 | 1015.7 |
| 20260905012932 | 63 | 263 | 0.0 | 1.0 | 0.00 | 0.10 | 0.10 | 60 | 1015.8 |
| 20260905012433 | 63 | 263 | 0.0 | 1.0 | 0.00 | 0.10 | 0.10 | 59 | 1015.9 |
| 20260905012252 | 64 | 263 | 0.0 | 1.0 | 0.00 | 0.10 | 0.10 | 59 | 1015.8 |
| 20260905011432 | 64 | 263 | 0.0 | 2.0 | 0.00 | 0.10 | 0.10 | 58 | 1015.7 |
| 20260905010934 | 64 | 263 | 0.0 | 2.0 | 0.00 | 0.10 | 0.10 | 59 | 1015.7 |
| 20260905010611 | 64 | 263 | 0.0 | 2.0 | 0.00 | 0.10 | 0.10 | 58 | 1015.5 |
| 20260905010531 | 64 | 263 | 0.0 | 2.0 | 0.00 | 0.10 | 0.10 | 58 | 1015.6 |
| 20260905005435 | 64 | 263 | 0.0 | 1.0 | 0.00 | 0.10 | 0.10 | 59 | 1015.4 |
| 20260905004934 | 64 | 264 | 0.0 | 3.0 | 0.00 | 0.10 | 0.10 | 59 | 1015.4 |
| 20260905004428 | 64 | 264 | 0.0 | 3.0 | 0.00 | 0.10 | 0.10 | 59 | 1015.3 |
| 20260905003928 | 64 | 264 | 0.0 | 3.0 | 0.00 | 0.10 | 0.10 | 60 | 1015.3 |
| 20260905003437 | 64 | 264 | 0.0 | 4.0 | 0.00 | 0.10 | 0.10 | 59 | 1015.3 |
| 20260905002932 | 64 | 178 | 0.0 | 4.0 | 0.00 | 0.10 | 0.10 | 61 | 1015.3 |
| 20260905002426 | 63 | 176 | 0.0 | 3.0 | 0.00 | 0.10 | 0.10 | 61 | 1015.2 |
| 20260905001926 | 63 | 174 | 0.0 | 1.0 | 0.00 | 0.10 | 0.10 | 62 | 1015.2 |
| 20260905001426 | 63 | 174 | 0.0 | 2.0 | 0.00 | 0.10 | 0.10 | 62 | 1015.4 |
| 20260905000927 | 63 | 174 | 0.0 | 2.0 | 0.00 | 0.10 | 0.10 | 61 | 1015.4 |
| 20260905000426 | 63 | 174 | 0.0 | 2.0 | 0.00 | 0.10 | 0.10 | 60 | 1015.4 |
| 20260904235926 | 64 | 175 | 0.0 | 3.0 | 0.00 | 0.10 | 0.10 | 58 | 1015.4 |
| 20260904235424 | 65 | 175 | 0.0 | 5.0 | 0.00 | 0.10 | 0.10 | 57 | 1015.4 |
| 20260904234926 | 65 | 171 | 1.0 | 6.0 | 0.00 | 0.10 | 0.10 | 55 | 1015.4 |
| 20260904234425 | 65 | 169 | 1.0 | 5.0 | 0.00 | 0.10 | 0.10 | 55 | 1015.5 |
| 20260904233937 | 65 | 141 | 1.0 | 4.0 | 0.00 | 0.10 | 0.10 | 59 | 1015.5 |
| 20260904233423 | 65 | 141 | 1.0 | 4.0 | 0.00 | 0.10 | 0.10 | 59 | 1015.4 |
| 20260904232922 | 65 | 77 | 1.0 | 4.0 | 0.00 | 0.10 | 0.10 | 57 | 1015.4 |
| 20260904232423 | 64 | 140 | 0.0 | 3.0 | 0.00 | 0.10 | 0.10 | 64 | 1015.4 |
| 20260904231922 | 64 | 149 | 0.0 | 3.0 | 0.00 | 0.10 | 0.10 | 63 | 1015.4 |
| 20260904231425 | 63 | 150 | 0.0 | 3.0 | 0.00 | 0.10 | 0.10 | 64 | 1015.4 |
| 20260904230924 | 63 | 149 | 0.0 | 5.0 | 0.00 | 0.10 | 0.10 | 65 | 1015.5 |
| 20260904230422 | 62 | 150 | 0.0 | 5.0 | 0.00 | 0.10 | 0.10 | 64 | 1015.4 |
| 20260904225922 | 62 | 154 | 0.0 | 2.0 | 0.00 | 0.10 | 0.10 | 64 | 1015.5 |
| 20260904225423 | 62 | 154 | 0.0 | 2.0 | 0.00 | 0.10 | 0.10 | 64 | 1015.4 |
| 20260904224923 | 62 | 154 | 0.0 | 3.0 | 0.00 | 0.10 | 0.10 | 66 | 1015.4 |
| 20260904224742 | 61 | 154 | 0.0 | 6.0 | 0.00 | 0.10 | 0.10 | 68 | 1015.4 |
| 20260904223923 | 61 | 158 | 0.0 | 6.0 | 0.00 | 0.10 | 0.10 | 68 | 1015.5 |
| 20260904223736 | 61 | 155 | 1.0 | 6.0 | 0.00 | 0.10 | 0.10 | 67 | 1015.3 |
| 20260904222930 | 61 | 156 | 1.0 | 6.0 | 0.00 | 0.10 | 0.10 | 68 | 1015.4 |
| 20260904222421 | 61 | 158 | 1.0 | 6.0 | 0.00 | 0.10 | 0.10 | 69 | 1015.4 |
| 20260904222235 | 61 | 157 | 1.0 | 4.0 | 0.00 | 0.10 | 0.10 | 68 | 1015.4 |
| 20260904221417 | 61 | 168 | 1.0 | 6.0 | 0.00 | 0.10 | 0.10 | 68 | 1015.4 |
| 20260904220918 | 61 | 172 | 1.0 | 6.0 | 0.00 | 0.10 | 0.10 | 68 | 1015.4 |
| 20260904220417 | 61 | 185 | 1.0 | 4.0 | 0.00 | 0.10 | 0.10 | 68 | 1015.4 |
| 20260904215917 | 61 | 208 | 0.0 | 6.0 | 0.00 | 0.10 | 0.10 | 69 | 1015.4 |
| 20260904215422 | 61 | 159 | 0.0 | 6.0 | 0.00 | 0.10 | 0.10 | 70 | 1015.3 |
| 20260904214914 | 61 | 159 | 0.0 | 6.0 | 0.00 | 0.10 | 0.10 | 69 | 1015.4 |
| 20260904214414 | 61 | 89 | 0.0 | 6.0 | 0.00 | 0.10 | 0.10 | 70 | 1015.3 |
| 20260904214227 | 60 | 89 | 0.0 | 2.0 | 0.00 | 0.10 | 0.10 | 68 | 1015.3 |
| 20260904213409 | 60 | 89 | 0.0 | 2.0 | 0.00 | 0.10 | 0.10 | 71 | 1015.3 |
| 20260904212908 | 60 | 89 | 0.0 | 2.0 | 0.00 | 0.10 | 0.10 | 70 | 1015.3 |
| 20260904212408 | 60 | 89 | 0.0 | 2.0 | 0.00 | 0.10 | 0.10 | 71 | 1015.2 |
| 20260904211909 | 60 | 89 | 0.0 | 2.0 | 0.00 | 0.10 | 0.10 | 71 | 1015.2 |
| 20260904211405 | 59 | 89 | 1.0 | 5.0 | 0.00 | 0.10 | 0.10 | 70 | 1015.3 |
| 20260904210905 | 59 | 89 | 1.0 | 5.0 | 0.00 | 0.10 | 0.10 | 71 | 1015.3 |
| 20260904210405 | 59 | 54 | 0.0 | 2.0 | 0.00 | 0.10 | 0.10 | 71 | 1015.2 |
| 20260904205906 | 59 | 54 | 0.0 | 2.0 | 0.00 | 0.10 | 0.10 | 72 | 1015.2 |
| 20260904205405 | 58 | 54 | 0.0 | 2.0 | 0.00 | 0.10 | 0.10 | 72 | 1015.1 |
| 20260904204907 | 58 | 54 | 0.0 | 2.0 | 0.00 | 0.10 | 0.10 | 73 | 1015.2 |
| 20260904204406 | 58 | 52 | 1.0 | 6.0 | 0.00 | 0.10 | 0.10 | 73 | 1015.2 |
| 20260904203910 | 58 | 51 | 1.0 | 6.0 | 0.00 | 0.10 | 0.10 | 73 | 1015.2 |
| 20260904203406 | 58 | 106 | 1.0 | 6.0 | 0.00 | 0.10 | 0.10 | 74 | 1015.1 |
| 20260904203225 | 58 | 48 | 1.0 | 6.0 | 0.00 | 0.10 | 0.10 | 73 | 1015.1 |
| 20260904202726 | 58 | 93 | 1.0 | 6.0 | 0.00 | 0.10 | 0.10 | 73 | 1015.1 |
| 20260904202233 | 58 | 68 | 1.0 | 5.0 | 0.00 | 0.10 | 0.10 | 72 | 1015.1 |
| 20260904201418 | 59 | 75 | 1.0 | 5.0 | 0.00 | 0.10 | 0.10 | 72 | 1014.9 |
| 20260904200904 | 59 | 135 | 1.0 | 5.0 | 0.00 | 0.10 | 0.10 | 73 | 1014.9 |
| 20260904200403 | 59 | 66 | 1.0 | 5.0 | 0.00 | 0.10 | 0.10 | 73 | 1014.8 |
| 20260904195904 | 59 | 125 | 0.0 | 5.0 | 0.00 | 0.10 | 0.10 | 72 | 1014.8 |
| 20260904195404 | 59 | 181 | 1.0 | 5.0 | 0.00 | 0.10 | 0.10 | 75 | 1014.7 |
| 20260904195217 | 59 | 181 | 1.0 | 5.0 | 0.00 | 0.10 | 0.10 | 74 | 1014.7 |
| 20260904194404 | 59 | 86 | 0.0 | 6.0 | 0.00 | 0.10 | 0.10 | 73 | 1014.7 |
| 20260904193903 | 59 | 137 | 0.0 | 6.0 | 0.00 | 0.10 | 0.10 | 74 | 1014.7 |
| 20260904193405 | 59 | 138 | 1.0 | 6.0 | 0.00 | 0.10 | 0.10 | 75 | 1014.7 |
| 20260904192903 | 58 | 167 | 1.0 | 6.0 | 0.00 | 0.10 | 0.10 | 77 | 1014.7 |
| 20260904192404 | 58 | 160 | 1.0 | 5.0 | 0.00 | 0.10 | 0.10 | 76 | 1014.7 |
| 20260904191905 | 58 | 158 | 1.0 | 5.0 | 0.00 | 0.10 | 0.10 | 77 | 1014.8 |
| 20260904191406 | 57 | 139 | 1.0 | 3.0 | 0.00 | 0.10 | 0.10 | 77 | 1014.8 |
| 20260904191229 | 57 | 139 | 1.0 | 5.0 | 0.00 | 0.10 | 0.10 | 78 | 1014.8 |
| 20260904190405 | 57 | 132 | 1.0 | 5.0 | 0.00 | 0.10 | 0.10 | 79 | 1014.8 |
| 20260904185909 | 56 | 102 | 1.0 | 4.0 | 0.00 | 0.10 | 0.10 | 79 | 1014.7 |
| 20260904185414 | 56 | 166 | 0.0 | 4.0 | 0.00 | 0.10 | 0.10 | 81 | 1014.6 |
| 20260904184911 | 56 | 170 | 0.0 | 5.0 | 0.00 | 0.10 | 0.10 | 81 | 1014.7 |
| 20260904184403 | 55 | 171 | 0.0 | 5.0 | 0.00 | 0.10 | 0.10 | 81 | 1014.6 |
| 20260904183903 | 55 | 171 | 0.0 | 4.0 | 0.00 | 0.10 | 0.10 | 82 | 1014.6 |
| 20260904183715 | 54 | 171 | 0.0 | 4.0 | 0.00 | 0.10 | 0.10 | 84 | 1014.6 |
| 20260904182901 | 54 | 83 | 0.0 | 2.0 | 0.00 | 0.10 | 0.10 | 85 | 1014.6 |
| 20260904182400 | 53 | 83 | 0.0 | 1.0 | 0.00 | 0.10 | 0.10 | 86 | 1014.5 |
| 20260904181904 | 53 | 83 | 0.0 | 2.0 | 0.00 | 0.10 | 0.10 | 86 | 1014.3 |
| 20260904181402 | 53 | 83 | 0.0 | 4.0 | 0.00 | 0.10 | 0.10 | 87 | 1014.3 |
| 20260904180902 | 53 | 83 | 0.0 | 4.0 | 0.00 | 0.10 | 0.10 | 88 | 1014.3 |
| 20260904180358 | 52 | 83 | 0.0 | 2.0 | 0.00 | 0.10 | 0.10 | 89 | 1014.3 |
| 20260904175851 | 52 | 83 | 0.0 | 3.0 | 0.00 | 0.10 | 0.10 | 89 | 1014.3 |
| 20260904175350 | 52 | 83 | 0.0 | 3.0 | 0.00 | 0.10 | 0.10 | 92 | 1014.3 |
| 20260904174850 | 52 | 83 | 0.0 | 3.0 | 0.00 | 0.10 | 0.10 | 89 | 1014.2 |
| 20260904174704 | 52 | 83 | 0.0 | 3.0 | 0.00 | 0.10 | 0.10 | 89 | 1014.1 |
| 20260904173845 | 52 | 83 | 0.0 | 1.0 | 0.00 | 0.10 | 0.10 | 89 | 1014.1 |
| 20260904173344 | 52 | 83 | 0.0 | 1.0 | 0.00 | 0.10 | 0.10 | 89 | 1014.1 |
| 20260904172840 | 52 | 83 | 0.0 | 0.0 | 0.00 | 0.10 | 0.10 | 89 | 1014.1 |
| 20260904172338 | 51 | 83 | 0.0 | 0.0 | 0.00 | 0.10 | 0.10 | 89 | 1014.0 |
| 20260904172158 | 51 | 83 | 0.0 | 0.0 | 0.00 | 0.10 | 0.10 | 89 | 1013.9 |
| 20260904171337 | 51 | 83 | 0.0 | 0.0 | 0.00 | 0.10 | 0.10 | 92 | 1014.0 |
| 20260904170838 | 51 | 83 | 0.0 | 3.0 | 0.00 | 0.10 | 0.10 | 89 | 1013.9 |
| 20260904170336 | 51 | 83 | 0.0 | 3.0 | 0.00 | 0.10 | 0.10 | 89 | 1013.9 |
| 20260904165835 | 51 | 83 | 0.0 | 3.0 | 0.00 | 0.10 | 0.10 | 89 | 1013.8 |
| 20260904165335 | 51 | 83 | 0.0 | 3.0 | 0.00 | 0.10 | 0.10 | 89 | 1013.8 |
| 20260904164831 | 51 | 83 | 0.0 | 2.0 | 0.00 | 0.10 | 0.10 | 89 | 1013.8 |
| 20260904164331 | 51 | 83 | 0.0 | 2.0 | 0.00 | 0.10 | 0.10 | 89 | 1013.7 |
| 20260904163830 | 51 | 83 | 0.0 | 2.0 | 0.00 | 0.10 | 0.10 | 89 | 1013.7 |
| 20260904163653 | 51 | 83 | 0.0 | 2.0 | 0.00 | 0.10 | 0.10 | 89 | 1013.7 |
| 20260904162830 | 51 | 83 | 0.0 | 2.0 | 0.00 | 0.10 | 0.10 | 89 | 1013.6 |
| 20260904162330 | 51 | 83 | 0.0 | 1.0 | 0.00 | 0.10 | 0.10 | 89 | 1013.6 |
| 20260904161830 | 50 | 83 | 0.0 | 0.0 | 0.00 | 0.10 | 0.10 | 89 | 1013.5 |
| 20260904161331 | 50 | 83 | 0.0 | 0.0 | 0.00 | 0.10 | 0.10 | 89 | 1013.4 |
| 20260904160831 | 50 | 83 | 0.0 | 0.0 | 0.00 | 0.10 | 0.10 | 89 | 1013.4 |
| 20260904160653 | 50 | 83 | 0.0 | 0.0 | 0.00 | 0.10 | 0.10 | 89 | 1013.4 |
| 20260904155830 | 51 | 83 | 0.0 | 0.0 | 0.00 | 0.10 | 0.10 | 89 | 1013.2 |
| 20260904155330 | 51 | 83 | 0.0 | 0.0 | 0.00 | 0.10 | 0.10 | 89 | 1013.1 |
| 20260904154831 | 51 | 83 | 0.0 | 0.0 | 0.00 | 0.10 | 0.10 | 89 | 1013.0 |
| 20260904154331 | 51 | 83 | 0.0 | 0.0 | 0.00 | 0.10 | 0.10 | 89 | 1012.9 |
| 20260904153832 | 51 | 83 | 0.0 | 0.0 | 0.00 | 0.10 | 0.10 | 89 | 1013.0 |
| 20260904153330 | 51 | 83 | 0.0 | 0.0 | 0.00 | 0.10 | 0.10 | 89 | 1013.0 |
| 20260904152831 | 51 | 83 | 0.0 | 0.0 | 0.00 | 0.10 | 0.10 | 89 | 1013.1 |
| 20260904152330 | 51 | 83 | 0.0 | 0.0 | 0.00 | 0.10 | 0.10 | 88 | 1013.1 |
| 20260904151834 | 51 | 83 | 0.0 | 0.0 | 0.00 | 0.10 | 0.10 | 88 | 1013.0 |
| 20260904151336 | 51 | 83 | 0.0 | 0.0 | 0.00 | 0.10 | 0.10 | 88 | 1012.9 |
| 20260904150833 | 51 | 83 | 0.0 | 0.0 | 0.00 | 0.10 | 0.10 | 88 | 1012.9 |
| 20260904150346 | 51 | 83 | 0.0 | 0.0 | 0.00 | 0.10 | 0.10 | 88 | 1012.9 |
| 20260904145846 | 50 | 83 | 0.0 | 0.0 | 0.00 | 0.10 | 0.10 | 87 | 1012.8 |
| 20260904145334 | 50 | 83 | 0.0 | 0.0 | 0.00 | 0.10 | 0.10 | 87 | 1012.8 |
| 20260904144830 | 50 | 83 | 0.0 | 1.0 | 0.00 | 0.10 | 0.10 | 87 | 1012.6 |
| 20260904144327 | 50 | 83 | 0.0 | 1.0 | 0.00 | 0.11 | 0.10 | 87 | 1012.4 |
| 20260904143829 | 50 | 83 | 0.0 | 2.0 | 0.00 | 0.11 | 0.10 | 87 | 1012.5 |
| 20260904143328 | 50 | 83 | 0.0 | 2.0 | 0.00 | 0.11 | 0.10 | 87 | 1012.4 |
| 20260904142824 | 50 | 83 | 0.0 | 0.0 | 0.00 | 0.12 | 0.10 | 87 | 1012.3 |
| 20260904142636 | 49 | 83 | 0.0 | 0.0 | 0.00 | 0.12 | 0.10 | 87 | 1012.2 |
| 20260904141811 | 49 | 83 | 0.0 | 0.0 | 0.00 | 0.12 | 0.10 | 87 | 1012.2 |
| 20260904141532 | 0 | 0.0 | 0.0 | 0.00 | 0.00 | 0.00 | |||
| 20260904141326 | 0 | 0.0 | 0.0 | 0.00 | 0.00 | 0.00 | |||
| 20260904140529 | 0 | 0.0 | 0.0 | 0.00 | 0.00 | 0.00 | |||
| 20260904140031 | 0 | 0.0 | 0.0 | 0.00 | 0.00 | 0.00 | |||
| 20260904135822 | 0 | 0.0 | 0.0 | 0.00 | 0.00 | 0.00 | |||
| 20260904135030 | 0 | 0.0 | 0.0 | 0.00 | 0.00 | 0.00 | |||
| 20260904134529 | 0 | 0.0 | 0.0 | 0.00 | 0.00 | 0.00 | |||
| 20260904134031 | 0 | 0.0 | 0.0 | 0.00 | 0.00 | 0.00 | |||
| 20260904133814 | 0 | 0.0 | 0.0 | 0.00 | 0.00 | 0.00 | |||
| 20260904133032 | 0 | 0.0 | 0.0 | 0.00 | 0.00 | 0.00 | |||
| 20260904132812 | 0 | 0.0 | 0.0 | 0.00 | 0.00 | 0.00 | |||
| 20260904132029 | 0 | 0.0 | 0.0 | 0.00 | 0.00 | 0.00 | |||
| 20260904131804 | 0 | 0.0 | 0.0 | 0.00 | 0.00 | 0.00 | |||
| 20260904131006 | 0 | 0.0 | 0.0 | 0.00 | 0.00 | 0.00 | |||
| 20260904130742 | 0 | 0.0 | 0.0 | 0.00 | 0.00 | 0.00 | |||
| 20260904130006 | 0 | 0.0 | 0.0 | 0.00 | 0.00 | 0.00 | |||
| 20260904125506 | 0 | 0.0 | 0.0 | 0.00 | 0.00 | 0.00 | |||
| 20260904125005 | 0 | 0.0 | 0.0 | 0.00 | 0.00 | 0.00 | |||
| 20260904124505 | 0 | 0.0 | 0.0 | 0.00 | 0.00 | 0.00 | |||
| 20260904123958 | 0 | 0.0 | 0.0 | 0.00 | 0.00 | 0.00 | |||
| 20260904123733 | 0 | 0.0 | 0.0 | 0.00 | 0.20 | 0.10 | |||
| 20260904123234 | 0 | 0.0 | 0.0 | 0.00 | 0.20 | 0.10 | |||
| 20260904122731 | 0 | 0.0 | 0.0 | 0.00 | 0.20 | 0.10 | |||
| 20260904122513 | 0 | 0.0 | 0.0 | 0.00 | 0.20 | 0.10 | |||
| 20260904121734 | 0 | 0.0 | 0.0 | 0.00 | 0.21 | 0.10 | |||
| 20260904121230 | 49 | 93 | 0.0 | 0.0 | 0.00 | 0.21 | 0.10 | 90 | 1010.6 |
| 20260904120733 | 49 | 93 | 0.0 | 0.0 | 0.00 | 0.22 | 0.10 | 90 | 1010.6 |
| 20260904120243 | 49 | 93 | 0.0 | 0.0 | 0.00 | 0.22 | 0.10 | 90 | 1010.5 |
| 20260904115731 | 49 | 93 | 0.0 | 0.0 | 0.00 | 0.22 | 0.10 | 90 | 1010.5 |
| 20260904115413 | 49 | 93 | 0.0 | 0.0 | 0.00 | 0.22 | 0.10 | 90 | 1010.3 |
| 20260904115333 | 49 | 93 | 0.0 | 0.0 | 0.00 | 0.22 | 0.10 | 90 | 1010.5 |
| 20260904114546 | 49 | 93 | 0.0 | 0.0 | 0.00 | 0.23 | 0.10 | 90 | 1010.2 |
| 20260904113734 | 49 | 93 | 0.0 | 0.0 | 0.00 | 0.23 | 0.10 | 90 | 1010.1 |
| 20260904113232 | 49 | 93 | 0.0 | 0.0 | 0.00 | 0.24 | 0.10 | 90 | 1010.2 |
| 20260904112731 | 49 | 93 | 0.0 | 0.0 | 0.00 | 0.24 | 0.10 | 90 | 1010.2 |
| 20260904112230 | 49 | 93 | 0.0 | 0.0 | 0.00 | 0.24 | 0.10 | 90 | 1010.2 |
| 20260904112047 | 49 | 93 | 0.0 | 0.0 | 0.00 | 0.24 | 0.10 | 90 | 1010.2 |
| 20260904111243 | 49 | 93 | 0.0 | 0.0 | 0.00 | 0.24 | 0.10 | 90 | 1010.3 |
| 20260904110731 | 49 | 93 | 0.0 | 0.0 | 0.00 | 0.24 | 0.10 | 90 | 1010.3 |
| 20260904110244 | 49 | 93 | 0.0 | 0.0 | 0.00 | 0.24 | 0.10 | 90 | 1010.0 |
| 20260904105732 | 49 | 93 | 0.0 | 0.0 | 0.00 | 0.24 | 0.10 | 90 | 1009.9 |
| 20260904105230 | 49 | 93 | 0.0 | 0.0 | 0.00 | 0.24 | 0.10 | 90 | 1009.9 |
| 20260904104731 | 49 | 93 | 0.0 | 0.0 | 0.00 | 0.24 | 0.10 | 90 | 1010.0 |
| 20260904104231 | 49 | 93 | 0.0 | 0.0 | 0.00 | 0.24 | 0.10 | 90 | 1010.0 |
| 20260904103733 | 49 | 93 | 0.0 | 0.0 | 0.00 | 0.24 | 0.10 | 90 | 1009.9 |
| 20260904103234 | 49 | 93 | 0.0 | 0.0 | 0.00 | 0.24 | 0.10 | 90 | 1009.4 |
| 20260904102740 | 49 | 93 | 0.0 | 0.0 | 0.00 | 0.24 | 0.10 | 90 | 1009.5 |
| 20260904102230 | 49 | 93 | 0.0 | 0.0 | 0.00 | 0.24 | 0.10 | 89 | 1009.6 |
| 20260904102049 | 49 | 93 | 0.0 | 0.0 | 0.00 | 0.24 | 0.10 | 89 | 1009.7 |
| 20260904101550 | 49 | 93 | 0.0 | 0.0 | 0.01 | 0.24 | 0.10 | 89 | 1009.7 |
| 20260904100731 | 49 | 93 | 0.0 | 0.0 | 0.01 | 0.24 | 0.10 | 89 | 1009.5 |
| 20260904100230 | 49 | 93 | 0.0 | 0.0 | 0.01 | 0.24 | 0.10 | 89 | 1009.5 |
| 20260904095731 | 49 | 93 | 0.0 | 0.0 | 0.01 | 0.23 | 0.10 | 89 | 1009.5 |
| 20260904095233 | 50 | 93 | 0.0 | 2.0 | 0.01 | 0.23 | 0.10 | 89 | 1009.7 |
| 20260904095048 | 50 | 93 | 0.0 | 2.0 | 0.01 | 0.23 | 0.10 | 89 | 1009.6 |
| 20260904094232 | 50 | 93 | 0.0 | 0.0 | 0.01 | 0.23 | 0.10 | 89 | 1009.7 |
| 20260904093731 | 49 | 93 | 0.0 | 0.0 | 0.01 | 0.23 | 0.10 | 89 | 1009.9 |
| 20260904093230 | 50 | 93 | 0.0 | 0.0 | 0.02 | 0.23 | 0.10 | 89 | 1009.9 |
| 20260904092731 | 50 | 93 | 0.0 | 0.0 | 0.02 | 0.23 | 0.10 | 89 | 1009.7 |
| 20260904092231 | 50 | 93 | 0.0 | 0.0 | 0.02 | 0.23 | 0.10 | 89 | 1009.8 |
| 20260904091731 | 50 | 93 | 0.0 | 0.0 | 0.02 | 0.23 | 0.09 | 89 | 1010.1 |
| 20260904091231 | 50 | 93 | 0.0 | 0.0 | 0.02 | 0.23 | 0.09 | 89 | 1010.2 |
| 20260904090730 | 50 | 93 | 0.0 | 0.0 | 0.02 | 0.23 | 0.09 | 89 | 1010.1 |
| 20260904090243 | 50 | 93 | 0.0 | 0.0 | 0.03 | 0.23 | 0.09 | 89 | 1009.8 |
| 20260904085732 | 50 | 93 | 0.0 | 0.0 | 0.04 | 0.20 | 0.09 | 88 | 1009.7 |
| 20260904085231 | 50 | 93 | 0.0 | 0.0 | 0.05 | 0.20 | 0.09 | 88 | 1009.7 |
| 20260904084730 | 50 | 93 | 0.0 | 1.0 | 0.06 | 0.20 | 0.09 | 87 | 1009.6 |
| 20260904084231 | 50 | 93 | 0.0 | 1.0 | 0.06 | 0.20 | 0.09 | 87 | 1009.7 |
| 20260904083731 | 50 | 93 | 0.0 | 1.0 | 0.06 | 0.20 | 0.09 | 87 | 1009.7 |
| 20260904083544 | 50 | 93 | 0.0 | 0.0 | 0.06 | 0.20 | 0.09 | 87 | 1009.7 |